INTELSAT 903 (IS-903)

Last updated on Jan. 1, 2021, 6:25 a.m. UTC

1 27403U 02016A   20366.86628235 -.00000011  00000-0  00000-0 0  9995
2 27403   2.7146  86.8412 0004468 195.4698  40.6880  0.99019090 25652
UTC
Height (km)
Latitude
Longitude
Inclination
Orbital Period
UTC large
Height (km)
Speed (km/s)
/
Latitude / Longitude
Inclination (degrees)
Orbital Period (minutes)
Azimuth
Elevation
Range (km)
Doppler Factor
iOS Compass Heading
iOS Angle

Next 30 passes for location: Hong Kong

Rise time Rise Azimuth (degrees) Set time Set Azimuth (degrees) Duration Max altitude (degrees)

No matching passes for this satellites